COMSATBW-2

Last updated on Sat Apr 13 2024 01:02:37 GMT+0100 (British Summer Time)

1 36582U 10021B 24103.52324715 .00000079 00000+0 00000+0 0 9991 2 36582 0.0566 78.5784 0002200 305.3403 18.8067 1.00270633 50977
UTC large
Height (km)
Speed (km/s)
/
Latitude / Longitude
Inclination (degrees)
Orbital Period (minutes)
Azimuth
Elevation
Range (km)
Doppler Factor

Next 0 passes for location: London (51.5072 / 0.1276)

Sorry there are no passes over London.